EDT,Max TemperatureF,Mean TemperatureF,Min TemperatureF,Max Dew PointF,MeanDew PointF,Min DewpointF,Max Humidity, Mean Humidity, Min Humidity, Max Sea Level PressureIn, Mean Sea Level PressureIn, Min Sea Level PressureIn, Max VisibilityMiles, Mean VisibilityMiles, Min VisibilityMiles, Max Wind SpeedMPH, Mean Wind SpeedMPH, Max Gust SpeedMPH,PrecipitationIn, CloudCover, Events, WindDirDegrees
2013-3-1,25,22,19,16,15,13,84,73,62,30.19,30.15,30.06,10,10,9,20,12,23,T,7,Snow,347
2013-3-2,22,19,15,15,13,9,84,76,67,30.17,30.14,30.06,10,9,6,17,10,21,T,7,Snow,328
2013-3-3,19,13,6,12,10,3,88,78,67,30.09,30.07,30.02,10,9,4,16,7,20,T,6,Snow,316
2013-3-4,30,19,8,15,9,5,92,71,50,30.18,30.13,30.06,10,10,10,15,6,18,0.00,3,,305
2013-3-5,32,16,-1,26,13,-5,88,81,74,30.19,30.11,30.03,10,9,4,13,6,16,0.01,6,Snow,36
2013-3-6,36,32,28,29,28,26,92,84,75,30.23,30.17,30.04,10,10,2,14,5,16,0.01,8,Snow,35
2013-3-7,34,29,24,28,21,18,92,74,56,30.44,30.32,30.20,10,8,2,16,8,21,0.01,7,Snow,311
2013-3-8,42,31,19,28,23,17,92,76,59,30.51,30.45,30.38,10,10,1,13,3,14,0.00,4,,185
2013-3-9,40,28,15,30,24,12,100,80,59,30.40,30.26,30.08,10,9,4,21,7,25,T,3,,141
2013-3-10,43,38,33,40,36,31,100,88,75,30.06,29.90,29.82,10,4,0,14,5,17,0.33,8,Fog-Rain,98
2013-3-11,45,40,35,43,38,34,100,93,85,29.84,29.54,29.39,10,3,0,20,7,30,0.40,8,Fog-Rain,156
2013-3-12,37,31,25,34,24,19,85,74,63,29.86,29.70,29.44,10,8,2,16,9,24,0.01,8,Snow,264
2013-3-13,29,24,19,20,13,8,81,62,42,30.16,29.93,29.81,10,7,2,24,11,36,0.04,6,Snow,308
2013-3-14,37,28,18,22,13,6,84,58,32,30.24,30.15,30.01,10,10,10,16,6,22,0.00,2,,290
2013-3-15,34,28,22,28,21,12,92,70,47,29.98,29.89,29.80,10,8,1,23,11,31,0.04,6,Snow,299
2013-3-16,25,21,16,16,13,10,84,70,55,30.05,29.96,29.90,10,4,0,16,8,20,0.07,8,Fog-Snow,33
2013-3-17,25,16,7,14,7,1,80,58,36,30.37,30.22,30.02,10,8,1,23,5,28,0.01,4,Snow,334
2013-3-18,32,18,4,28,20,0,92,78,63,30.28,29.86,29.52,10,6,0,28,13,36,0.26,6,Fog-Snow,118
2013-3-19,31,26,21,28,20,14,92,75,58,29.80,29.57,29.44,10,6,2,22,10,29,0.11,8,Snow,236
2013-3-20,29,22,15,18,13,8,88,65,42,29.85,29.82,29.77,10,9,4,17,9,29,0.01,5,Snow,261
2013-3-21,28,25,21,22,18,14,88,71,53,29.89,29.80,29.74,10,6,2,20,10,26,0.01,8,Snow,302
2013-3-22,35,28,21,21,19,14,81,69,56,30.04,29.93,29.86,10,10,9,14,7,21,0.00,7,,302
2013-3-23,39,27,15,23,20,12,92,70,48,30.12,30.08,30.01,10,10,10,15,6,21,0.00,5,Rain,312
2013-3-24,33,28,22,24,21,19,92,74,56,30.09,29.98,29.86,10,10,10,16,6,20,0.00,4,,7
2013-3-25,38,35,31,27,25,22,78,69,59,29.96,29.86,29.79,10,10,10,21,13,26,T,8,,15
2013-3-26,41,36,31,30,24,19,92,68,44,30.08,30.02,29.96,10,10,2,22,11,28,T,7,Snow,323
2013-3-27,44,38,31,28,25,23,78,64,49,30.18,30.11,30.07,10,10,7,22,10,26,T,7,Snow,316
2013-3-28,50,41,32,27,25,20,75,55,34,30.26,30.21,30.16,10,10,10,13,6,20,T,5,,307
2013-3-29,48,37,25,23,20,15,81,55,28,30.28,30.24,30.21,10,10,10,15,6,21,0.00,0,,295
2013-3-30,51,36,20,30,21,16,92,58,24,30.22,30.08,29.85,10,10,10,18,6,25,0.00,3,,181
2013-3-31,55,42,28,39,34,18,93,66,39,29.81,29.63,29.53,10,7,2,20,9,31,0.06,7,Rain-Snow,237